Flag for U.S.A. Weather past 2 weeks in Moscow, Idaho, U.S.A.

Now
51 °F

Clear.


Feels Like: 51 °F
Forecast: 52 / 87 °F
Wind: No wind

Location: Pullman / Moscow Regional Airport

Current Time: Sep 21, 2014 at 1:22:50 AM

Latest Report: Sep 21, 2014 at 12:53 AM


Visibility: 10 mi

Pressure: 30.01 "Hg

Humidity: 52%

Dew point: 34 °F

Location of MoscowLocation

Historic Weather in Moscow — Graph

°F

Moscow temperature yesterday

Maximum temperature yesterday: 85 °F (at 3:53 PM)
Minimum temperature yesterday: 50 °F (at 1:53 AM)
Average temperature yesterday: 67 °F

Past Weeks' High & Low Weather Summary

 TemperatureHumidityPressure
High87 °F (Sep 15, 3:53 PM)83% (Sep 19, 6:53 AM)30.42 "Hg (Sep 19, 6:53 AM)
Low34 °F (Sep 11, 6:53 AM)10% (Sep 7, 2:53 PM)29.63 "Hg (Sep 18, 12:53 AM)
Average62 °F35%29.98 "Hg
* Reported Sep 5 11:53 PM — Sep 20 11:53 PM, Moscow, Weather by CustomWeather, © 2014

Note: Actual official high and low records may vary slightly from our data, if they occured in-between our weather recording intervals... More about our weather records

Advertising

Moscow weather history for previous 24 hours

 ConditionsComfort  
Time TempWeatherWind HumidityBarometerVisibility
11:53 PM
Sep 20
53 °FClear.No wind48%30.01 "Hg10 mi
10:53 PM54 °FClear.No wind47%30.02 "Hg10 mi
9:53 PM58 °FClear.No wind41%30.02 "Hg8 mi
8:53 PM63 °FClear.No wind34%30.02 "Hg10 mi
7:53 PM64 °FClear.No wind33%30.03 "Hg10 mi
6:53 PM76 °FSunny.No wind23%30.02 "Hg10 mi
5:53 PM83 °FSunny.No wind19%30.02 "Hg10 mi
4:53 PM84 °FSunny.3 mph19%30.03 "Hg10 mi
3:53 PM85 °FSunny.No wind20%30.04 "Hg10 mi
2:53 PM83 °FSunny.6 mph23%30.06 "Hg10 mi
1:53 PM82 °FSunny.7 mph23%30.09 "Hg10 mi
12:53 PM80 °FSunny.No wind27%30.11 "Hg10 mi
11:53 AM79 °FSunny.3 mph28%30.13 "Hg10 mi
10:53 AM74 °FSunny.8 mph38%30.16 "Hg10 mi
5:53 AM56 °FClear.10 mph65%30.14 "Hg10 mi
4:53 AM55 °FClear.5 mph67%30.13 "Hg10 mi
3:53 AM56 °FClear.3 mph65%30.13 "Hg10 mi
2:53 AM57 °FClear.6 mph62%30.12 "Hg10 mi
1:53 AM50 °FClear.No wind68%30.13 "Hg10 mi
Weather by CustomWeather, © 2014

See weather overviewHow to use our weather pages